Menu Close Menu
Station Historical Data
Daily Summary for September 10, 2017 Units:  Metric    English   Both
« Previous Day
Next Day »
Daily Weekly Monthly Yearly Custom
  High: Low: Average:
Temperature: 21.5 °C 15.4 °C 17.9 °C
Dew Point: 12.6 °C 8.4 °C 10 °C
Humidity: 75% 45% 61%
Wind Speed: 3.2km/h 0km/h 0.6km/h
Wind Gust: 11.3km/h - -
Wind- - West
Pressure: 1024.9 hPa 1021.2 hPa -
Precipitation: 0 mm    
Historical Graphs
 
 
Tabular Data for September 10, 2017
Time Temperature Dew Point Pressure Wind Wind Speed Wind Gust Humidity Rainfall Rate (Hourly) solar Conditions
00:00 17 °C 12.6 °C 1022.6 hPa Calm     75% 0 mm WeatherDisplay:10.37 W/m2 RA
00:05 17 °C 12.6 °C 1022.2 hPa Calm     75% 0 mm WeatherDisplay:10.37 W/m2 CLR
00:10 17.1 °C 12.3 °C 1022.6 hPa Calm     74% 0 mm WeatherDisplay:10.37 W/m2 CLR
00:15 17.2 °C 12.1 °C 1022.6 hPa Calm     72% 0 mm WeatherDisplay:10.37 W/m2 CLR
00:20 17.4 °C 12.2 °C 1022.6 hPa Calm     71% 0 mm WeatherDisplay:10.37 W/m2 CLR
00:25 17.7 °C 12.2 °C 1022.6 hPa Calm     70% 0 mm WeatherDisplay:10.37 W/m2 CLR
00:30 17.8 °C 12.1 °C 1022.6 hPa Calm     69% 0 mm WeatherDisplay:10.37 W/m2 CLR
00:40 17.9 °C 11.9 °C 1022.6 hPa Calm     68% 0 mm WeatherDisplay:10.37 W/m2 CLR
00:45 18 °C 12 °C 1022.6 hPa Calm   1.6 km/h 68% 0 mm WeatherDisplay:10.37 W/m2 CLR
00:50 18.1 °C 12.1 °C 1022.6 hPa Calm   1.6 km/h 68% 0 mm WeatherDisplay:10.37 W/m2 CLR
00:55 18 °C 12 °C 1022.6 hPa Calm   1.6 km/h 68% 0 mm WeatherDisplay:10.37 W/m2 CLR
01:00 18.1 °C 11.8 °C 1022.2 hPa Calm   1.6 km/h 67% 0 mm WeatherDisplay:10.37 W/m2 CLR
01:10 18 °C 11.8 °C 1022.6 hPa Calm   1.6 km/h 67% 0 mm WeatherDisplay:10.37 W/m2 CLR
01:15 17.9 °C 11.5 °C 1022.6 hPa Calm   1.6 km/h 66% 0 mm WeatherDisplay:10.37 W/m2 CLR
01:20 17.9 °C 11.7 °C 1022.2 hPa Calm   3.2 km/h 67% 0 mm WeatherDisplay:10.37 W/m2 CLR
01:25 18 °C 11.6 °C 1022.2 hPa Calm     66% 0 mm WeatherDisplay:10.37 W/m2 CLR
01:30 18 °C 11.6 °C 1022.2 hPa Calm   1.6 km/h 66% 0 mm WeatherDisplay:10.37 W/m2 CLR
01:35 18.1 °C 11.4 °C 1022.2 hPa Calm   3.2 km/h 65% 0 mm WeatherDisplay:10.37 W/m2 CLR
01:40 18.1 °C 11.2 °C 1022.2 hPa Calm   3.2 km/h 64% 0 mm WeatherDisplay:10.37 W/m2 CLR
01:45 18.1 °C 11.2 °C 1022.2 hPa Calm   1.6 km/h 64% 0 mm WeatherDisplay:10.37 W/m2 CLR
01:50 18.1 °C 11.1 °C 1022.6 hPa Calm   3.2 km/h 64% 0 mm WeatherDisplay:10.37 W/m2 CLR
01:55 18.1 °C 11.4 °C 1022.6 hPa Calm   1.6 km/h 65% 0 mm WeatherDisplay:10.37 W/m2 CLR
02:00 17.9 °C 11.3 °C 1022.6 hPa Calm   1.6 km/h 65% 0 mm WeatherDisplay:10.37 W/m2 CLR
02:10 17.8 °C 11.2 °C 1022.6 hPa Calm   3.2 km/h 65% 0 mm WeatherDisplay:10.37 W/m2 CLR
02:15 17.9 °C 10.9 °C 1022.6 hPa Calm   3.2 km/h 64% 0 mm WeatherDisplay:10.37 W/m2 CLR
02:20 17.8 °C 10.9 °C 1022.2 hPa Calm   1.6 km/h 64% 0 mm WeatherDisplay:10.37 W/m2 CLR
02:25 17.7 °C 10.8 °C 1022.2 hPa Calm   1.6 km/h 64% 0 mm WeatherDisplay:10.37 W/m2 CLR
02:30 17.7 °C 10.8 °C 1022.2 hPa Calm   1.6 km/h 64% 0 mm WeatherDisplay:10.37 W/m2 CLR
02:35 17.7 °C 10.8 °C 1022.2 hPa Calm   1.6 km/h 64% 0 mm WeatherDisplay:10.37 W/m2 CLR
02:40 17.7 °C 10.8 °C 1022.6 hPa Calm   1.6 km/h 64% 0 mm WeatherDisplay:10.37 W/m2 CLR
02:45 17.7 °C 10.8 °C 1022.2 hPa Calm   1.6 km/h 64% 0 mm WeatherDisplay:10.37 W/m2 CLR
02:50 17.6 °C 10.7 °C 1022.2 hPa Calm   1.6 km/h 64% 0 mm WeatherDisplay:10.37 W/m2 CLR
02:55 17.6 °C 10.7 °C 1022.2 hPa West 1.6 km/h 3.2 km/h 64% 0 mm WeatherDisplay:10.37 W/m2 CLR
03:00 17.6 °C 10.4 °C 1022.2 hPa Calm   3.2 km/h 63% 0 mm WeatherDisplay:10.37 W/m2 CLR
03:05 17.5 °C 10.6 °C 1022.6 hPa Calm   1.6 km/h 64% 0 mm WeatherDisplay:10.37 W/m2 CLR
03:10 17.4 °C 10.5 °C 1022.6 hPa Calm   1.6 km/h 64% 0 mm WeatherDisplay:10.37 W/m2 CLR
03:15 17.4 °C 10.5 °C 1022.6 hPa Calm   8 km/h 64% 0 mm WeatherDisplay:10.37 W/m2 CLR
03:20 17.3 °C 10.7 °C 1022.6 hPa Calm   1.6 km/h 65% 0 mm WeatherDisplay:10.37 W/m2 CLR
03:25 17.3 °C 10.6 °C 1022.2 hPa Calm   1.6 km/h 65% 0 mm WeatherDisplay:10.37 W/m2 CLR
03:30 17.2 °C 10.6 °C 1022.2 hPa Calm   4.8 km/h 65% 0 mm WeatherDisplay:10.37 W/m2 CLR
03:35 17.2 °C 10.3 °C 1022.2 hPa Calm   3.2 km/h 64% 0 mm WeatherDisplay:10.37 W/m2 CLR
03:40 17.2 °C 10.3 °C 1022.2 hPa West 1.6 km/h 3.2 km/h 64% 0 mm WeatherDisplay:10.37 W/m2 CLR
03:45 17.2 °C 10.3 °C 1022.2 hPa Calm   3.2 km/h 64% 0 mm WeatherDisplay:10.37 W/m2 CLR
03:50 17.3 °C 10.6 °C 1022.2 hPa Calm   4.8 km/h 65% 0 mm WeatherDisplay:10.37 W/m2 CLR
03:55 17.1 °C 10.5 °C 1022.2 hPa Calm   4.8 km/h 65% 0 mm WeatherDisplay:10.37 W/m2 CLR
04:00 17.1 °C 10.7 °C 1022.2 hPa Calm   1.6 km/h 66% 0 mm WeatherDisplay:10.37 W/m2 CLR
04:05 17 °C 10.6 °C 1022.2 hPa Calm   1.6 km/h 66% 0 mm WeatherDisplay:10.37 W/m2 CLR
04:10 16.9 °C 10.5 °C 1022.2 hPa Calm   1.6 km/h 66% 0 mm WeatherDisplay:10.37 W/m2 CLR
04:15 16.9 °C 10.5 °C 1022.2 hPa Calm   4.8 km/h 66% 0 mm WeatherDisplay:10.37 W/m2 CLR
04:20 16.9 °C 10.5 °C 1022.2 hPa Calm   4.8 km/h 66% 0 mm WeatherDisplay:10.37 W/m2 CLR
04:25 16.9 °C 10.7 °C 1022.2 hPa Calm   3.2 km/h 67% 0 mm WeatherDisplay:10.37 W/m2 CLR
04:30 16.8 °C 10.4 °C 1022.2 hPa Calm   3.2 km/h 66% 0 mm WeatherDisplay:10.37 W/m2 CLR
04:40 16.7 °C 10.7 °C 1022.2 hPa Calm   4.8 km/h 68% 0 mm WeatherDisplay:10.37 W/m2 CLR
04:45 16.6 °C 10.4 °C 1022.2 hPa WNW 1.6 km/h 3.2 km/h 67% 0 mm WeatherDisplay:10.37 W/m2 CLR
04:50 16.6 °C 10.7 °C 1022.2 hPa Calm   1.6 km/h 68% 0 mm WeatherDisplay:10.37 W/m2 CLR
04:55 16.6 °C 10.6 °C 1022.2 hPa Calm   3.2 km/h 68% 0 mm WeatherDisplay:10.37 W/m2 CLR
05:00 16.5 °C 10.6 °C 1022.2 hPa Calm   3.2 km/h 68% 0 mm WeatherDisplay:10.37 W/m2 CLR
05:05 16.4 °C 10.7 °C 1022.2 hPa Calm   1.6 km/h 69% 0 mm WeatherDisplay:10.37 W/m2 CLR
05:10 16.4 °C 10.7 °C 1022.2 hPa Calm   1.6 km/h 69% 0 mm WeatherDisplay:10.37 W/m2 CLR
05:15 16.3 °C 10.8 °C 1022.2 hPa Calm   3.2 km/h 70% 0 mm WeatherDisplay:10.37 W/m2 CLR
05:20 16.3 °C 10.6 °C 1022.6 hPa Calm   4.8 km/h 69% 0 mm WeatherDisplay:10.37 W/m2 CLR
05:25 16.3 °C 10.6 °C 1022.6 hPa Calm   3.2 km/h 69% 0 mm WeatherDisplay:10.37 W/m2 CLR
05:30 16.2 °C 10.7 °C 1022.6 hPa Calm   4.8 km/h 70% 0 mm WeatherDisplay:10.37 W/m2 CLR
05:40 16.2 °C 10.7 °C 1022.6 hPa Calm   1.6 km/h 70% 0 mm WeatherDisplay:10.37 W/m2 CLR
05:45 16.2 °C 10.7 °C 1022.6 hPa Calm   4.8 km/h 70% 0 mm WeatherDisplay:10.37 W/m2 CLR
05:50 16.2 °C 10.7 °C 1022.6 hPa Calm   1.6 km/h 70% 0 mm WeatherDisplay:10.37 W/m2 CLR
05:55 16.1 °C 10.9 °C 1022.6 hPa Calm   3.2 km/h 71% 0 mm WeatherDisplay:10.37 W/m2 CLR
06:00 16.1 °C 10.8 °C 1022.6 hPa Calm   8 km/h 71% 0 mm WeatherDisplay:10.37 W/m2 CLR
06:05 16.1 °C 10.8 °C 1022.9 hPa Calm   1.6 km/h 71% 0 mm WeatherDisplay:10.37 W/m2 CLR
06:10 16 °C 10.7 °C 1022.9 hPa Calm   4.8 km/h 71% 0 mm WeatherDisplay:10.37 W/m2 CLR
06:15 15.9 °C 10.7 °C 1022.9 hPa West 1.6 km/h 4.8 km/h 71% 0 mm WeatherDisplay:10.37 W/m2 CLR
06:20 15.9 °C 10.7 °C 1022.9 hPa Calm   4.8 km/h 71% 0 mm WeatherDisplay:10.37 W/m2 CLR
06:25 15.8 °C 10.8 °C 1022.9 hPa West 1.6 km/h 3.2 km/h 72% 0 mm WeatherDisplay:10.37 W/m2 CLR
06:30 15.8 °C 10.8 °C 1022.9 hPa Calm   1.6 km/h 72% 0 mm WeatherDisplay:10.37 W/m2 CLR
06:40 15.7 °C 10.7 °C 1023.2 hPa WNW 1.6 km/h 3.2 km/h 72% 0 mm WeatherDisplay:10.37 W/m2 CLR
06:45 15.7 °C 10.7 °C 1023.2 hPa Calm   4.8 km/h 72% 0 mm WeatherDisplay:10.37 W/m2 CLR
06:55 15.7 °C 10.4 °C 1023.2 hPa Calm   3.2 km/h 71% 0 mm WeatherDisplay:10.37 W/m2 CLR
07:00 15.6 °C 10.4 °C 1023.2 hPa Calm   3.2 km/h 71% 0 mm WeatherDisplay:10.37 W/m2 CLR
07:05 15.6 °C 10.6 °C 1023.6 hPa West 1.6 km/h 3.2 km/h 72% 0 mm WeatherDisplay:10.37 W/m2 CLR
07:10 15.6 °C 10.6 °C 1023.6 hPa West 1.6 km/h 3.2 km/h 72% 0 mm WeatherDisplay:10.37 W/m2 CLR
07:15 15.5 °C 10.4 °C 1023.6 hPa West 1.6 km/h 4.8 km/h 72% 0 mm WeatherDisplay:10.37 W/m2 CLR
07:20 15.5 °C 10.4 °C 1023.6 hPa West 1.6 km/h 3.2 km/h 72% 0 mm WeatherDisplay:10.37 W/m2 FEW
07:25 15.4 °C 10.4 °C 1023.6 hPa Calm   3.2 km/h 72% 0 mm WeatherDisplay:10.37 W/m2 FEW
07:30 15.4 °C 10.4 °C 1023.9 hPa Calm   4.8 km/h 72% 0 mm WeatherDisplay:10.37 W/m2 FEW
07:40 15.4 °C 10.4 °C 1023.9 hPa Calm   4.8 km/h 72% 0 mm WeatherDisplay:10.37 W/m2 FEW
07:45 15.4 °C 10.4 °C 1023.9 hPa Calm   3.2 km/h 72% 0 mm WeatherDisplay:10.37 W/m2 FEW
07:50 15.6 °C 10.3 °C 1023.9 hPa West 1.6 km/h 4.8 km/h 71% 0 mm WeatherDisplay:10.37 W/m2 FEW
07:55 15.6 °C 10.6 °C 1024.3 hPa Calm   4.8 km/h 72% 0 mm WeatherDisplay:10.37 W/m2 FEW
08:00 15.7 °C 10.6 °C 1024.3 hPa Calm   3.2 km/h 72% 0 mm WeatherDisplay:10.37 W/m2 FEW
08:05 15.7 °C 10.4 °C 1024.3 hPa WNW 1.6 km/h 4.8 km/h 71% 0 mm WeatherDisplay:10.37 W/m2 FEW
08:10 15.7 °C 10.5 °C 1024.3 hPa West 1.6 km/h 4.8 km/h 71% 0 mm WeatherDisplay:10.37 W/m2 FEW
08:15 15.8 °C 10.6 °C 1024.3 hPa West 3.2 km/h 9.7 km/h 71% 0 mm WeatherDisplay:10.37 W/m2 FEW
08:20 15.9 °C 10.6 °C 1024.3 hPa WNW 1.6 km/h 3.2 km/h 71% 0 mm WeatherDisplay:10.37 W/m2 FEW
08:25 16 °C 10.6 °C 1024.3 hPa WNW 1.6 km/h 4.8 km/h 70% 0 mm WeatherDisplay:10.37 W/m2 FEW
08:30 16.1 °C 10.6 °C 1024.3 hPa WNW 1.6 km/h 4.8 km/h 70% 0 mm WeatherDisplay:10.37 W/m2 FEW
08:35 16.1 °C 10.8 °C 1024.6 hPa West 1.6 km/h 4.8 km/h 71% 0 mm WeatherDisplay:10.37 W/m2 FEW
08:40 16.1 °C 10.8 °C 1024.6 hPa Calm   3.2 km/h 71% 0 mm WeatherDisplay:10.37 W/m2 FEW
08:45 16.1 °C 10.4 °C 1024.6 hPa West 1.6 km/h 8 km/h 69% 0 mm WeatherDisplay:10.37 W/m2 FEW
08:50 16.2 °C 10.7 °C 1024.6 hPa West 1.6 km/h 4.8 km/h 70% 0 mm WeatherDisplay:10.37 W/m2 FEW
08:55 16.2 °C 10.7 °C 1024.6 hPa WNW 1.6 km/h 4.8 km/h 70% 0 mm WeatherDisplay:10.37 W/m2 FEW
09:00 16.3 °C 10.8 °C 1024.3 hPa Calm   3.2 km/h 70% 0 mm WeatherDisplay:10.37 W/m2 FEW
09:05 16.3 °C 10.4 °C 1024.3 hPa West 1.6 km/h 4.8 km/h 68% 0 mm WeatherDisplay:10.37 W/m2 FEW
09:10 16.4 °C 10.5 °C 1024.3 hPa West 1.6 km/h 8 km/h 68% 0 mm WeatherDisplay:10.37 W/m2 FEW
09:15 16.5 °C 10.8 °C 1024.3 hPa West 1.6 km/h 4.8 km/h 69% 0 mm WeatherDisplay:10.37 W/m2 FEW
09:20 16.6 °C 10.7 °C 1024.3 hPa Calm   4.8 km/h 68% 0 mm WeatherDisplay:10.37 W/m2 FEW
09:25 16.7 °C 10.5 °C 1024.3 hPa Calm   8 km/h 67% 0 mm WeatherDisplay:10.37 W/m2 FEW
09:30 16.8 °C 10.4 °C 1024.6 hPa West 3.2 km/h 8 km/h 66% 0 mm WeatherDisplay:10.37 W/m2 FEW
09:40 17 °C 10.3 °C 1024.6 hPa West 1.6 km/h 8 km/h 65% 0 mm WeatherDisplay:10.37 W/m2 FEW
09:45 17.1 °C 10.2 °C 1024.6 hPa WSW 1.6 km/h 9.7 km/h 64% 0 mm WeatherDisplay:10.37 W/m2 FEW
09:50 17.2 °C 10.3 °C 1024.6 hPa Calm   4.8 km/h 64% 0 mm WeatherDisplay:10.37 W/m2 FEW
09:55 17.3 °C 10.4 °C 1024.6 hPa WNW 1.6 km/h 8 km/h 64% 0 mm WeatherDisplay:10.37 W/m2 FEW
10:00 17.4 °C 10.1 °C 1024.6 hPa West 1.6 km/h 4.8 km/h 62% 0 mm WeatherDisplay:10.37 W/m2 FEW
10:10 17.6 °C 10 °C 1024.6 hPa West 1.6 km/h 9.7 km/h 61% 0 mm WeatherDisplay:10.37 W/m2 FEW
10:15 17.8 °C 9.7 °C 1024.9 hPa West 3.2 km/h 9.7 km/h 59% 0 mm WeatherDisplay:10.37 W/m2 FEW
10:20 17.8 °C 9.2 °C 1024.9 hPa West 3.2 km/h 8 km/h 57% 0 mm WeatherDisplay:10.37 W/m2 FEW
10:25 18 °C 10.2 °C 1024.9 hPa West 1.6 km/h 4.8 km/h 60% 0 mm WeatherDisplay:10.37 W/m2 FEW
10:30 18.3 °C 9.9 °C 1024.9 hPa West 1.6 km/h 8 km/h 58% 0 mm WeatherDisplay:10.37 W/m2 FEW
10:35 18.4 °C 9.7 °C 1024.9 hPa West 1.6 km/h 8 km/h 57% 0 mm WeatherDisplay:10.37 W/m2 FEW
10:40 18.6 °C 9.7 °C 1024.9 hPa West 1.6 km/h 8 km/h 56% 0 mm WeatherDisplay:10.37 W/m2 FEW
10:45 18.8 °C 10.1 °C 1024.9 hPa West 1.6 km/h 4.8 km/h 57% 0 mm WeatherDisplay:10.37 W/m2 FEW
10:50 18.9 °C 9.1 °C 1024.9 hPa West 1.6 km/h 8 km/h 53% 0 mm WeatherDisplay:10.37 W/m2 FEW
10:55 18.9 °C 9.4 °C 1024.9 hPa West 1.6 km/h 8 km/h 54% 0 mm WeatherDisplay:10.37 W/m2 FEW
11:00 19.2 °C 9.3 °C 1024.9 hPa West 1.6 km/h 8 km/h 53% 0 mm WeatherDisplay:10.37 W/m2 FEW
11:05 19.2 °C 9.1 °C 1024.9 hPa West 1.6 km/h 4.8 km/h 52% 0 mm WeatherDisplay:10.37 W/m2 FEW
11:10 19.2 °C 8.8 °C 1024.9 hPa West 3.2 km/h 8 km/h 51% 0 mm WeatherDisplay:10.37 W/m2 FEW
11:15 19.2 °C 9.1 °C 1024.9 hPa West 3.2 km/h 8 km/h 52% 0 mm WeatherDisplay:10.37 W/m2 FEW
11:20 19.3 °C 8.9 °C 1024.6 hPa West 1.6 km/h 8 km/h 51% 0 mm WeatherDisplay:10.37 W/m2 SCT
11:25 19.6 °C 9.7 °C 1024.6 hPa WNW 1.6 km/h 4.8 km/h 53% 0 mm WeatherDisplay:10.37 W/m2 SCT
11:30 19.9 °C 9.2 °C 1024.9 hPa West 1.6 km/h 8 km/h 50% 0 mm WeatherDisplay:10.37 W/m2 SCT
11:35 20 °C 8.9 °C 1024.9 hPa West 1.6 km/h 4.8 km/h 49% 0 mm WeatherDisplay:10.37 W/m2 SCT
11:40 20.1 °C 9.4 °C 1024.6 hPa WSW 1.6 km/h 8 km/h 50% 0 mm WeatherDisplay:10.37 W/m2 SCT
11:45 20.2 °C 9.2 °C 1024.9 hPa WSW 1.6 km/h 4.8 km/h 49% 0 mm WeatherDisplay:10.37 W/m2 SCT
11:50 20.5 °C 9.4 °C 1024.9 hPa West 1.6 km/h 4.8 km/h 49% 0 mm WeatherDisplay:10.37 W/m2 SCT
11:55 20.4 °C 8.4 °C 1024.9 hPa WSW 1.6 km/h 8 km/h 46% 0 mm WeatherDisplay:10.37 W/m2 SCT
12:00 20.6 °C 9.2 °C 1024.6 hPa Calm   4.8 km/h 48% 0 mm WeatherDisplay:10.37 W/m2 SCT
12:05 21 °C 9.6 °C 1024.9 hPa West 3.2 km/h 8 km/h 48% 0 mm WeatherDisplay:10.37 W/m2 SCT
12:10 21.3 °C 9.8 °C 1024.6 hPa WSW 1.6 km/h 4.8 km/h 48% 0 mm WeatherDisplay:10.37 W/m2 SCT
12:15 21.5 °C 10.1 °C 1024.6 hPa West 1.6 km/h 4.8 km/h 48% 0 mm WeatherDisplay:10.37 W/m2 SCT
12:20 21.4 °C 8.9 °C 1024.3 hPa West 1.6 km/h 8 km/h 45% 0 mm WeatherDisplay:10.37 W/m2 SCT
12:25 21.2 °C 9.1 °C 1024.3 hPa West 1.6 km/h 4.8 km/h 46% 0 mm WeatherDisplay:10.37 W/m2 SCT
12:30 21.2 °C 8.8 °C 1024.3 hPa West 1.6 km/h 3.2 km/h 45% 0 mm WeatherDisplay:10.37 W/m2 SCT
12:40 20.9 °C 9.2 °C 1024.3 hPa West 3.2 km/h 11.3 km/h 47% 0 mm WeatherDisplay:10.37 W/m2 SCT
12:45 20.7 °C 8.7 °C 1024.3 hPa West 1.6 km/h 8 km/h 46% 0 mm WeatherDisplay:10.37 W/m2 SCT
12:50 20.9 °C 9.2 °C 1024.3 hPa West 1.6 km/h 3.2 km/h 47% 0 mm WeatherDisplay:10.37 W/m2 SCT
12:55 20.8 °C 8.4 °C 1024.6 hPa WNW 1.6 km/h 4.8 km/h 45% 0 mm WeatherDisplay:10.37 W/m2 SCT
13:00 20.6 °C 9.4 °C 1024.3 hPa Calm   3.2 km/h 49% 0 mm WeatherDisplay:10.37 W/m2 SCT
13:10 20.9 °C 9.8 °C 1024.3 hPa WNW 3.2 km/h 8 km/h 49% 0 mm WeatherDisplay:10.37 W/m2 SCT
13:15 21.1 °C 9.7 °C 1024.3 hPa WNW 3.2 km/h 8 km/h 48% 0 mm WeatherDisplay:10.37 W/m2 SCT
13:25 20.8 °C 9.4 °C 1024.3 hPa West 1.6 km/h 4.8 km/h 48% 0 mm WeatherDisplay:10.37 W/m2 SCT
13:30 20.6 °C 9.2 °C 1024.3 hPa NW 1.6 km/h 8 km/h 48% 0 mm WeatherDisplay:10.37 W/m2 SCT
13:35 20.9 °C 10.1 °C 1023.9 hPa Calm   3.2 km/h 50% 0 mm WeatherDisplay:10.37 W/m2 SCT
13:40 21.1 °C 10.3 °C 1023.9 hPa Calm   3.2 km/h 50% 0 mm WeatherDisplay:10.37 W/m2 SCT
13:45 21.1 °C 9.6 °C 1023.9 hPa West 1.6 km/h 3.2 km/h 48% 0 mm WeatherDisplay:10.37 W/m2 SCT
13:50 20.7 °C 9.2 °C 1023.9 hPa West 1.6 km/h 4.8 km/h 48% 0 mm WeatherDisplay:10.37 W/m2 SCT
13:55 20.3 °C 9.6 °C 1023.9 hPa West 1.6 km/h 4.8 km/h 50% 0 mm WeatherDisplay:10.37 W/m2 SCT
14:00 20.3 °C 9.8 °C 1023.9 hPa West 1.6 km/h 8 km/h 51% 0 mm WeatherDisplay:10.37 W/m2 SCT
14:05 20.2 °C 10 °C 1023.9 hPa Calm   8 km/h 52% 0 mm WeatherDisplay:10.37 W/m2 SCT
14:10 20.3 °C 9.8 °C 1023.9 hPa West 1.6 km/h 4.8 km/h 51% 0 mm WeatherDisplay:10.37 W/m2 SCT
14:15 20.3 °C 9.8 °C 1023.9 hPa West 1.6 km/h 4.8 km/h 51% 0 mm WeatherDisplay:10.37 W/m2 SCT
14:20 20.3 °C 10.2 °C 1023.6 hPa WNW 1.6 km/h 4.8 km/h 52% 0 mm WeatherDisplay:10.37 W/m2 BKN
14:25 20.5 °C 10.3 °C 1023.6 hPa Calm   3.2 km/h 52% 0 mm WeatherDisplay:10.37 W/m2 BKN
14:30 20.7 °C 9.6 °C 1023.2 hPa Calm   4.8 km/h 49% 0 mm WeatherDisplay:10.37 W/m2 BKN
14:40 20.9 °C 10.1 °C 1023.2 hPa NW 1.6 km/h 3.2 km/h 50% 0 mm WeatherDisplay:10.37 W/m2 BKN
14:45 20.9 °C 10.4 °C 1023.2 hPa West 1.6 km/h 4.8 km/h 51% 0 mm WeatherDisplay:10.37 W/m2 BKN
14:50 20.8 °C 10 °C 1023.2 hPa West 1.6 km/h 4.8 km/h 50% 0 mm WeatherDisplay:10.37 W/m2 BKN
14:55 20.7 °C 9.9 °C 1023.2 hPa Calm   4.8 km/h 50% 0 mm WeatherDisplay:10.37 W/m2 BKN
15:00 20.6 °C 9.5 °C 1023.2 hPa Calm   4.8 km/h 49% 0 mm WeatherDisplay:10.37 W/m2 BKN
15:05 20.5 °C 9.1 °C 1023.2 hPa West 1.6 km/h 8 km/h 48% 0 mm WeatherDisplay:10.37 W/m2 BKN
15:10 20.3 °C 8.9 °C 1023.2 hPa West 1.6 km/h 8 km/h 48% 0 mm WeatherDisplay:10.37 W/m2 BKN
15:20 20.3 °C 9.8 °C 1023.2 hPa WNW 1.6 km/h 4.8 km/h 51% 0 mm WeatherDisplay:10.37 W/m2 BKN
15:25 20.3 °C 9.9 °C 1023.2 hPa WNW 1.6 km/h 3.2 km/h 51% 0 mm WeatherDisplay:10.37 W/m2 BKN
15:30 20.3 °C 9.6 °C 1023.2 hPa West 3.2 km/h 4.8 km/h 50% 0 mm WeatherDisplay:10.37 W/m2 BKN
15:40 20.1 °C 9.6 °C 1023.2 hPa WNW 1.6 km/h 3.2 km/h 51% 0 mm WeatherDisplay:10.37 W/m2 BKN
15:45 19.9 °C 8.6 °C 1023.2 hPa WNW 1.6 km/h 3.2 km/h 48% 0 mm WeatherDisplay:10.37 W/m2 BKN
15:50 19.8 °C 9.4 °C 1023.2 hPa Calm   3.2 km/h 51% 0 mm WeatherDisplay:10.37 W/m2 BKN
15:55 19.8 °C 8.8 °C 1023.2 hPa Calm   3.2 km/h 49% 0 mm WeatherDisplay:10.37 W/m2 BKN
16:00 19.8 °C 9.1 °C 1023.2 hPa Calm   1.6 km/h 50% 0 mm WeatherDisplay:10.37 W/m2 BKN
16:10 19.4 °C 8.4 °C 1023.2 hPa Calm   4.8 km/h 49% 0 mm WeatherDisplay:10.37 W/m2 BKN
16:15 19.4 °C 9 °C 1023.2 hPa WNW 1.6 km/h 3.2 km/h 51% 0 mm WeatherDisplay:10.37 W/m2 BKN
16:20 19.3 °C 8.9 °C 1023.2 hPa West 1.6 km/h 3.2 km/h 51% 0 mm WeatherDisplay:10.37 W/m2 OVC
16:25 19.3 °C 8.6 °C 1023.2 hPa Calm   3.2 km/h 50% 0 mm WeatherDisplay:10.37 W/m2 OVC
16:30 19.2 °C 8.8 °C 1023.2 hPa Calm   3.2 km/h 51% 0 mm WeatherDisplay:10.37 W/m2 OVC
16:40 19.1 °C 9.3 °C 1023.2 hPa Calm   1.6 km/h 53% 0 mm WeatherDisplay:10.37 W/m2 OVC
16:50 18.9 °C 9.4 °C 1022.9 hPa Calm   1.6 km/h 54% 0 mm WeatherDisplay:10.37 W/m2 OVC
16:55 18.9 °C 9.7 °C 1022.9 hPa Calm   4.8 km/h 55% 0 mm WeatherDisplay:10.37 W/m2 OVC
17:00 18.8 °C 9.9 °C 1022.9 hPa Calm   1.6 km/h 56% 0 mm WeatherDisplay:10.37 W/m2 OVC
17:05 18.8 °C 10.1 °C 1022.9 hPa Calm   1.6 km/h 57% 0 mm WeatherDisplay:10.37 W/m2 OVC
17:10 18.7 °C 10.1 °C 1022.9 hPa Calm   1.6 km/h 57% 0 mm WeatherDisplay:10.37 W/m2 OVC
17:15 18.7 °C 10 °C 1022.6 hPa Calm   1.6 km/h 57% 0 mm WeatherDisplay:10.37 W/m2 OVC
17:20 18.6 °C 9.7 °C 1022.6 hPa Calm   1.6 km/h 56% 0 mm WeatherDisplay:10.37 W/m2 OVC
17:25 18.6 °C 10.1 °C 1022.6 hPa Calm   1.6 km/h 58% 0 mm WeatherDisplay:10.37 W/m2 OVC
17:30 18.5 °C 9.8 °C 1022.6 hPa Calm   3.2 km/h 57% 0 mm WeatherDisplay:10.37 W/m2 OVC
17:35 18.4 °C 9.5 °C 1022.6 hPa Calm   3.2 km/h 56% 0 mm WeatherDisplay:10.37 W/m2 OVC
17:45 18.3 °C 9.9 °C 1022.6 hPa Calm   1.6 km/h 58% 0 mm WeatherDisplay:10.37 W/m2 OVC
17:50 18.3 °C 9.9 °C 1022.6 hPa Calm   1.6 km/h 58% 0 mm WeatherDisplay:10.37 W/m2 OVC
17:55 18.2 °C 9.8 °C 1022.6 hPa Calm   1.6 km/h 58% 0 mm WeatherDisplay:10.37 W/m2 OVC
18:00 18.1 °C 9.7 °C 1022.6 hPa Calm   1.6 km/h 58% 0 mm WeatherDisplay:10.37 W/m2 OVC
18:05 18.1 °C 9.9 °C 1022.6 hPa Calm   1.6 km/h 59% 0 mm WeatherDisplay:10.37 W/m2 OVC
18:10 18.1 °C 10.2 °C 1022.6 hPa Calm   4.8 km/h 60% 0 mm WeatherDisplay:10.37 W/m2 OVC
18:15 18 °C 9.9 °C 1022.6 hPa Calm   1.6 km/h 59% 0 mm WeatherDisplay:10.37 W/m2 OVC
18:20 17.9 °C 10.1 °C 1022.6 hPa Calm   1.6 km/h 60% 0 mm WeatherDisplay:10.37 W/m2 OVC
18:25 17.9 °C 9.8 °C 1022.6 hPa Calm   1.6 km/h 59% 0 mm WeatherDisplay:10.37 W/m2 OVC
18:30 17.9 °C 10.3 °C 1022.6 hPa Calm   1.6 km/h 61% 0 mm WeatherDisplay:10.37 W/m2 OVC
18:40 17.8 °C 9.9 °C 1022.6 hPa Calm   4.8 km/h 60% 0 mm WeatherDisplay:10.37 W/m2 OVC
18:45 17.7 °C 10.1 °C 1022.6 hPa Calm   1.6 km/h 61% 0 mm WeatherDisplay:10.37 W/m2 OVC
18:50 17.6 °C 10.2 °C 1022.6 hPa Calm   1.6 km/h 62% 0 mm WeatherDisplay:10.37 W/m2 OVC
18:55 17.6 °C 9.9 °C 1022.6 hPa Calm   1.6 km/h 61% 0 mm WeatherDisplay:10.37 W/m2 OVC
19:00 17.5 °C 9.7 °C 1022.6 hPa Calm     60% 0 mm WeatherDisplay:10.37 W/m2 OVC
19:05 17.5 °C 9.7 °C 1022.6 hPa Calm     60% 0 mm WeatherDisplay:10.37 W/m2 OVC
19:10 17.5 °C 9.9 °C 1022.6 hPa Calm     61% 0 mm WeatherDisplay:10.37 W/m2 OVC
19:15 17.4 °C 10.1 °C 1022.6 hPa Calm     62% 0 mm WeatherDisplay:10.37 W/m2 OVC
19:20 17.3 °C 9.7 °C 1022.6 hPa Calm     61% 0 mm WeatherDisplay:10.37 W/m2 OVC
19:25 17.3 °C 9.9 °C 1022.2 hPa Calm     62% 0 mm WeatherDisplay:10.37 W/m2 OVC
19:30 17.2 °C 9.9 °C 1022.2 hPa Calm     62% 0 mm WeatherDisplay:10.37 W/m2 OVC
19:35 17.2 °C 9.6 °C 1022.2 hPa Calm     61% 0 mm WeatherDisplay:10.37 W/m2 OVC
19:40 17.2 °C 9.1 °C 1022.2 hPa Calm     59% 0 mm WeatherDisplay:10.37 W/m2 OVC
19:45 17.2 °C 8.9 °C 1022.2 hPa Calm   1.6 km/h 58% 0 mm WeatherDisplay:10.37 W/m2 OVC
19:50 17.2 °C 8.9 °C 1022.2 hPa Calm   1.6 km/h 58% 0 mm WeatherDisplay:10.37 W/m2 OVC
19:55 17.2 °C 9.1 °C 1022.2 hPa Calm   1.6 km/h 59% 0 mm WeatherDisplay:10.37 W/m2 OVC
20:00 17.2 °C 9.1 °C 1022.2 hPa Calm   1.6 km/h 59% 0 mm WeatherDisplay:10.37 W/m2 OVC
20:05 17.1 °C 8.8 °C 1021.9 hPa Calm     58% 0 mm WeatherDisplay:10.37 W/m2 OVC
20:10 17.1 °C 9.1 °C 1021.9 hPa Calm   1.6 km/h 59% 0 mm WeatherDisplay:10.37 W/m2 OVC
20:15 17 °C 8.9 °C 1021.9 hPa Calm   1.6 km/h 59% 0 mm WeatherDisplay:10.37 W/m2 OVC
20:20 17.1 °C 9 °C 1021.9 hPa Calm     59% 0 mm WeatherDisplay:10.37 W/m2 OVC
20:25 17.1 °C 9 °C 1021.9 hPa Calm     59% 0 mm WeatherDisplay:10.37 W/m2 OVC
20:30 17 °C 8.9 °C 1021.9 hPa Calm     59% 0 mm WeatherDisplay:10.37 W/m2 OVC
20:40 16.9 °C 9.1 °C 1021.9 hPa Calm   1.6 km/h 60% 0 mm WeatherDisplay:10.37 W/m2 OVC
20:45 16.9 °C 9.1 °C 1021.9 hPa Calm   1.6 km/h 60% 0 mm WeatherDisplay:10.37 W/m2 OVC
20:50 16.9 °C 9.3 °C 1021.9 hPa Calm   1.6 km/h 61% 0 mm WeatherDisplay:10.37 W/m2 OVC
20:55 17 °C 9.2 °C 1021.6 hPa Calm   3.2 km/h 60% 0 mm WeatherDisplay:10.37 W/m2 OVC
21:00 17.1 °C 9.4 °C 1021.9 hPa Calm   1.6 km/h 61% 0 mm WeatherDisplay:10.37 W/m2 OVC
21:05 17.1 °C 9.2 °C 1021.6 hPa Calm   4.8 km/h 60% 0 mm WeatherDisplay:10.37 W/m2 OVC
21:10 17.1 °C 9.2 °C 1021.6 hPa WNW 1.6 km/h 1.6 km/h 60% 0 mm WeatherDisplay:10.37 W/m2 OVC
21:20 17.2 °C 8.9 °C 1021.9 hPa WNW 1.6 km/h 4.8 km/h 58% 0 mm WeatherDisplay:10.37 W/m2 OVC
21:25 17.3 °C 8.7 °C 1021.9 hPa WNW 1.6 km/h 3.2 km/h 57% 0 mm WeatherDisplay:10.37 W/m2 OVC
21:30 17.4 °C 8.5 °C 1021.9 hPa West 1.6 km/h 8 km/h 56% 0 mm WeatherDisplay:10.37 W/m2 OVC
21:35 17.4 °C 8.8 °C 1021.9 hPa Calm   3.2 km/h 57% 0 mm WeatherDisplay:10.37 W/m2 OVC
21:40 17.4 °C 8.8 °C 1021.9 hPa West 1.6 km/h 1.6 km/h 57% 0 mm WeatherDisplay:10.37 W/m2 OVC
21:45 17.4 °C 8.8 °C 1021.9 hPa Calm   3.2 km/h 57% 0 mm WeatherDisplay:10.37 W/m2 OVC
21:50 17.5 °C 8.6 °C 1021.9 hPa WNW 1.6 km/h 8 km/h 56% 0 mm WeatherDisplay:10.37 W/m2 OVC
22:00 17.4 °C 9.1 °C 1021.9 hPa Calm   3.2 km/h 58% 0 mm WeatherDisplay:10.37 W/m2 OVC
22:10 17.5 °C 9.1 °C 1021.6 hPa WNW 1.6 km/h 3.2 km/h 58% 0 mm WeatherDisplay:10.37 W/m2 OVC
22:15 17.4 °C 9.1 °C 1021.6 hPa Calm   3.2 km/h 58% 0 mm WeatherDisplay:10.37 W/m2 OVC
22:20 17.4 °C 9.1 °C 1021.9 hPa West 1.6 km/h 3.2 km/h 58% 0 mm WeatherDisplay:10.37 W/m2 OVC
22:30 17.4 °C 8.8 °C 1021.9 hPa West 1.6 km/h 4.8 km/h 57% 0 mm WeatherDisplay:10.37 W/m2 OVC
22:35 17.4 °C 9.1 °C 1021.9 hPa Calm   8 km/h 58% 0 mm WeatherDisplay:10.37 W/m2 OVC
22:40 17.4 °C 9.1 °C 1021.6 hPa WNW 1.6 km/h 4.8 km/h 58% 0 mm WeatherDisplay:10.37 W/m2 OVC
22:55 17.4 °C 9.1 °C 1021.6 hPa West 1.6 km/h 4.8 km/h 58% 0 mm WeatherDisplay:10.37 W/m2 OVC
23:00 17.4 °C 8.8 °C 1021.6 hPa West 1.6 km/h 3.2 km/h 57% 0 mm WeatherDisplay:10.37 W/m2 OVC
23:05 17.4 °C 8.8 °C 1021.6 hPa West 1.6 km/h 3.2 km/h 57% 0 mm WeatherDisplay:10.37 W/m2 OVC
23:10 17.4 °C 8.8 °C 1021.6 hPa West 1.6 km/h 4.8 km/h 57% 0 mm WeatherDisplay:10.37 W/m2 OVC
23:25 17.3 °C 8.7 °C 1021.6 hPa Calm   8 km/h 57% 0 mm WeatherDisplay:10.37 W/m2 OVC
23:30 17.3 °C 8.7 °C 1021.6 hPa Calm   6.4 km/h 57% 0 mm WeatherDisplay:10.37 W/m2 OVC
23:35 17.3 °C 8.7 °C 1021.6 hPa Calm   4.8 km/h 57% 0 mm WeatherDisplay:10.37 W/m2 OVC
23:40 17.3 °C 8.7 °C 1021.2 hPa Calm   8 km/h 57% 0 mm WeatherDisplay:10.37 W/m2 OVC
23:45 17.3 °C 8.7 °C 1021.2 hPa Calm   3.2 km/h 57% 0 mm WeatherDisplay:10.37 W/m2 OVC
23:55 17.3 °C 8.7 °C 1021.2 hPa WSW 1.6 km/h 8 km/h 57% 0 mm WeatherDisplay:10.37 W/m2 OVC
Piedmont Bend
Compliments of Weather Underground - 4 mb